Location: Maddington
(51.2000°N, 1.9167°W)
Time: 22:42:52
(UTC+00:00)

USA 238 - Pass Details

Date: 18 September 2020
Orbit: 1006 x 1206 km, 63.4° (Epoch: 15 October)

Event Time Altitude Azimuth Distance (km) Brightness Sun altitude
Rises 19:30:11 0° 314° (NW) 3,916 7.9 -12.5°
Reaches altitude 10° 19:32:49 10° 316° (NW) 2,985 7.1 -12.9°
Maximum altitude 19:39:59 78° 43° (NE) 1,179 3.9 -14.0°
Enters shadow 19:45:44 18° 129° (SE) 2,517 5.1 -14.8°
